Regional Weather Roundup
Issued by NWS

Home | Current Version | Previous Version | Text Only | Print | Product List | Glossary Off
Versions: 1 2 3 4 5 6 7 8 9 10 11 12 13 14 15 16 17 18 19 20 21 22 23 24 25 26 27 28 29 30 31 32 33 34 35 36 37 38 39 40 41 42 43 44 45 46 47 48 49 50

000
ASUS43 KMPX 050601
RWRMN
WEATHER ROUNDUP FOR MINNESOTA
NATIONAL WEATHER SERVICE TWIN CITIES/CHANHASSEN MN
1200 AM CST THU MAR 05 2015


NOTE: "FAIR" INDICATES FEW OR NO CLOUDS BELOW 12,000 FEET WITH NO
SIGNIFICANT WEATHER AND/OR OBSTRUCTIONS TO VISIBILITY. N/A MEANS
CURRENT SKY AND/OR WEATHER CONDITIONS ARE NOT AVAILABLE.

MNZ060>063-068>070-050700-
   Twin Cities Metro

CITY           SKY/WX    TMP DP  RH WIND       PRES   REMARKS
TWIN CITIES    CLEAR     -2 -12  62 W8        30.43F WCI -17
6HR MIN TEMP:  -2; 6HR MAX TEMP:   5;

ST PAUL        CLEAR      0 -11  59 NW7       30.45F WCI -13
CRYSTAL        CLEAR     -2 -13  59 W8        30.42F WCI -17
BLAINE         CLEAR     -2 -11  65 W7        30.41F WCI -16
LAKEVILLE      CLEAR     -8 -13  77 W8        30.42R WCI -23
EDEN PRAIRIE   FAIR      -3 -12  65 W9        30.42F WCI -19
6HR MIN TEMP:  -5; 6HR MAX TEMP:   5;

SOUTH ST PAUL  CLEAR      0 -11  58 W6        30.43S WCI -11
LAKE ELMO      FAIR       0 -11  60 W6        30.42S WCI -12
$$
MNZ001>005-007-008-013>017-022>024-027-028-050700-
   Northwest Minnesota

CITY           SKY/WX    TMP DP  RH WIND       PRES   REMARKS
BEMIDJI        CLEAR    -12 -16  80 W3        30.32S
ROSEAU         CLEAR    -11 -17  77 SW7       30.33S WCI -26
WARROAD        CLEAR    -13 -18  77 SW5       30.31F WCI -25
THIEF RVR FALL CLEAR    -11 -27  44 W5        30.35S WCI -23
CROOKSTON      CLEAR     -8 -13  77 W8        30.41S WCI -23
FOSSTON        CLEAR    -18 -24  76 S5        30.35F WCI -31
DETROIT LAKES  CLEAR     -6  -9  84 CALM      30.36S
MOORHEAD       CLEAR     -4  -9  77 W6        30.43S WCI -16
PARK RAPIDS    CLEAR    -16 -21  78 W6        30.33R WCI -31
MAHNOMEN       FAIR     -10 -15  79 SW5       30.36F WCI -22
$$
MNZ006-009>011-018-025>026-050700-
   North Central Minnesota

CITY           SKY/WX    TMP DP  RH WIND       PRES   REMARKS
BAUDETTE       CLEAR    -13 -18  78 SW6       30.30S WCI -27
FLAG ISLAND    CLEAR     -9 -17  70 SW6       30.29S WCI -23
INTL FALLS     CLEAR    -14 -19  79 SW3       30.30R
6HR MIN TEMP: -14; 6HR MAX TEMP:  -2;

WASKISH        CLEAR    -11 -17  77 SW7       30.32F WCI -26
BIG FORK       CLEAR    -17 -24  70 CALM      30.31R
LONGVILLE      CLEAR    -18 -24  76 CALM      30.35R
GRAND RAPIDS   CLEAR     -9 -17  70 W5        30.30R WCI -21
CRANE LAKE     CLEAR    -24 -29  76 CALM      30.32R
ORR            CLEAR    -15 -20  76 CALM      30.26R
COOK           CLEAR    -17 -20  83 CALM      30.29S
WALKER         FAIR     -13 -18  79 W5        30.34R WCI -25
$$
MNZ012-019>021-037-050700-
   Northeast Minnesota

CITY           SKY/WX    TMP DP  RH WIND       PRES   REMARKS
DULUTH         CLEAR    -10 -19  64 W8        30.30R WCI -26
6HR MIN TEMP: -10; 6HR MAX TEMP:   2;

ELY            CLEAR    -11 -18  70 W5        30.26R WCI -23
HIBBING        CLEAR    -13 -19  75 W5        30.30R WCI -25
EVELETH        FAIR      -8 -15  71 W7        30.31R WCI -22
DULUTH HARBOR  CLEAR     -2 -15  55 W8        30.41R WCI -17
TWO HARBORS    CLEAR     -4 -13  65 CALM      30.30R
SILVER BAY     CLEAR     -6 -17  59 CALM      30.29R
GRAND MARAIS     N/A     -1 -14  53 NW12G22   30.31R WCI -18
G MARAIS ARPRT PTCLDY    -9 -18  64 W7        30.18R WCI -24
$$
MNZ029>031-032-039>041-046>048-054>057-064-050700-
   West Central Minnesota

CITY           SKY/WX    TMP DP  RH WIND       PRES   REMARKS
FERGUS FALLS   CLEAR     -8 -15  71 CALM      30.46R
WHEATON        CLEAR     -9 -17  70 W6        30.47R WCI -23
MORRIS         FAIR     -11 -17  77 W6        30.43R WCI -25
ALEXANDRIA     PTCLDY    -9 -13  83 SW7       30.39R WCI -24
ELBOW LAKE     FAIR     -12 -15  84 CALM      30.41R
WADENA         CLEAR    -11 -15  84 W3        30.36R
GLENWOOD       PTCLDY   -13 -17  84 SW5       30.41R WCI -25
APPLETON       CLEAR     -9 -17  70 W6        30.47S WCI -23
BENSON         CLEAR    -11 -17  77 NW7       30.44R WCI -26
ORTONVILLE     CLEAR     -8 -17  65 SW6       30.46R WCI -21
MADISON        FAIR      -6 -13  71 W6        30.47S WCI -18
WILLMAR        FAIR      -6 -11  77 W7        30.45S WCI -20
$$
MNZ033>034-036-042>043-049>051-058-059-050700-
   Central Minnesota

CITY           SKY/WX    TMP DP  RH WIND       PRES   REMARKS
ST CLOUD       PTCLDY    -8 -15  71 W5        30.42S WCI -19
6HR MIN TEMP:  -8; 6HR MAX TEMP:   1;

SAUK CENTRE    FAIR     -11 -15  82 CALM      30.41R
PAYNESVILLE    CLEAR    -13 -16  85 SW5       30.43S WCI -25
AITKIN         CLEAR    -15 -20  76 W3        30.36R
PINE RIVER     PTCLDY   -17 -22  76 CALM      30.39R
BRAINERD       CLEAR    -11 -17  75 W5        30.38R WCI -23
STAPLES        CLEAR    -15 -18  84 W6        30.37R WCI -29
LONG PRAIRIE   FAIR     -15 -18  84 CALM      30.40R
LITTLE FALLS   PTCLDY   -13 -18  77 CALM      30.42R
LITCHFIELD     CLEAR     -2  -9  71 CALM      30.43F
BUFFALO        CLEAR     -6 -14  70 W6        30.44F WCI -19
MAPLE LAKE     PTCLDY    -5 -11  76 W6        30.43F WCI -17
$$
MNZ037-044-045-052-053-050700-
   East Central Minnesota

CITY           SKY/WX    TMP DP  RH WIND       PRES   REMARKS
PRINCETON      PTCLDY    -8 -17  65 CALM      30.42S
MORA           PTCLDY   -17 -24  70 CALM      30.42S
CAMBRIDGE      PTCLDY    -9 -17  70 W3        30.40F
RUSH CITY      PTCLDY   -10 -16  73 W3        30.42S
MOOSE LAKE     FAIR     -13 -20  70 CALM      30.36R
HINCKLEY       FAIR     -11 -17  77 W3        30.40S
CLOQUET        CLEAR     -9 -17  70 W5        30.33R WCI -21
MCGREGOR       CLEAR     -6 -13  71 CALM      30.35S
$$
MNZ071>073-080-081-089-090-097-098-050700-
   Southwest Minnesota

CITY           SKY/WX    TMP DP  RH WIND       PRES   REMARKS
MONTEVIDEO     FAIR      -6 -11  77 NW5       30.48R WCI -17
GRANITE FALLS  CLEAR     -6 -12  75 W8        30.48F WCI -22
CANBY          CLEAR     -6 -13  71 W7        30.47S WCI -20
MARSHALL       CLEAR     -6 -15  65 W9        30.45F WCI -22
REDWOOD FALLS  CLEAR     -4 -11  72 W9        30.46F WCI -20
OLIVIA         CLEAR     -8 -13  77 W5        30.45F WCI -19
PIPESTONE      PTCLDY    -9 -13  84 W3        30.40S
WINDOM         CLEAR     -6 -11  77 W8        30.41F WCI -21
WORTHINGTON    CLEAR     -6 -11  77 NW8       30.42S WCI -21
JACKSON        CLEAR     -4 -11  71 NW7       30.40F WCI -18
TRACY          CLEAR     -4 -12  70 W7        30.44F WCI -18
SLAYTON        CLEAR     -9 -17  68 CALM      30.41F
$$
MNZ065>067-074>077-082>085-091>093-050700-
   South Central Minnesota

CITY           SKY/WX    TMP DP  RH WIND       PRES   REMARKS
MANKATO        CLEAR     -2  -9  71 NW8       30.42S WCI -17
NEW ULM        CLEAR     -8 -13  77 W9        30.44F WCI -25
ST JAMES       CLEAR     -2  -9  71 W10       30.45S WCI -19
FAIRMONT       CLEAR      0  -9  65 NW10      30.40S WCI -17
GLENCOE        CLEAR     -5  -9  81 W8        30.43F WCI -20
FARIBAULT      CLEAR     -4 -11  71 W7        30.41S WCI -18
OWATONNA       CLEAR     -2 -11  65 W8        30.40R WCI -17
WASECA         CLEAR     -4  -9  77 W9        30.42S WCI -20
ALBERT LEA     CLEAR     -2  -8  78 W5        30.40R WCI -12
$$
MNZ078>079-086>088-094>096-050700-
   Southeast Minnesota

CITY           SKY/WX    TMP DP  RH WIND       PRES   REMARKS
ROCHESTER      CLEAR     -5 -12  72 NW12      30.36S WCI -23
6HR MIN TEMP:  -5; 6HR MAX TEMP:   6;

RED WING       CLEAR     -2 -15  55 NW5       30.42R WCI -12
STANTON        CLEAR     -4 -11  69 W6        30.41R WCI -16
DODGE CENTER   PTCLDY    -2  -9  71 NW8       30.36R WCI -17
WINONA         CLEAR      3  -8  60 W5        30.43S WCI  -6
AUSTIN         CLEAR     -2  -9  71 NW7       30.39R WCI -16
PRESTON        CLEAR     -6 -13  72 NW8       30.37R WCI -22
$$
ABBREVIATIONS USED IN REMARKS
   TC - TEMPERATURES IN CELSIUS
  WCI - WIND CHILL INDEX
   HX - HEAT INDEX
  VSB - VISIBILITY
$$


USA.gov is the U.S. government's official web portal to all federal, state and local government web resources and services.